FW3988 Weather Reports


Display with metric or nautical units.
time (UTC)temp
F
wind
direction
speed
MPH
gust
MPH
rain 1hr
in
rain 24hr
in
rain mn
in
humidity
%
barometer
mb
20260510231545 85 216 4.0 7.0 0.00 0.00 0.00 53 1009.3
20260510230020 85 215 5.0 9.0 0.00 0.00 0.00 54 1009.4
20260510224610 85 241 4.0 10.0 0.00 0.00 0.00 56 1009.5
20260510223057 85 223 5.0 10.0 0.00 0.00 0.00 58 1009.5
20260510221540 85 232 4.0 10.0 0.00 0.00 0.00 59 1009.6
20260510220134 85 217 2.0 10.0 0.00 0.00 0.00 58 1009.8
20260510214500 84 196 6.0 10.0 0.00 0.00 0.00 58 1009.9
20260510213052 84 219 8.0 12.0 0.00 0.00 0.00 61 1010.2
20260510211543 85 200 3.0 11.0 0.00 0.00 0.00 60 1010.4
20260510210138 84 213 6.0 11.0 0.00 0.00 0.00 54 1010.5
20260510204546 84 168 5.0 10.0 0.00 0.00 0.00 57 1010.5
20260510203032 85 235 5.0 12.0 0.00 0.00 0.00 58 1010.6
20260510201524 86 198 4.0 10.0 0.00 0.00 0.00 55 1010.8
20260510200120 85 216 5.0 11.0 0.00 0.00 0.00 55 1010.8
20260510194606 85 188 5.0 10.0 0.00 0.00 0.00 54 1010.9
20260510193052 85 230 4.0 10.0 0.00 0.00 0.00 53 1011.0
20260510191548 84 246 6.0 10.0 0.00 0.00 0.00 55 1011.1
20260510190013 84 213 6.0 10.0 0.00 0.00 0.00 56 1011.2
20260510184601 84 270 4.0 10.0 0.00 0.00 0.00 58 1011.3
20260510183049 85 213 4.0 7.0 0.00 0.00 0.00 58 1011.3
20260510181537 84 228 2.0 8.0 0.00 0.00 0.00 63 1011.4
20260510180130 84 221 4.0 9.0 0.00 0.00 0.00 62 1011.6
20260510174519 83 229 5.0 9.0 0.00 0.00 0.00 63 1011.6
20260510173001 84 218 4.0 8.0 0.00 0.00 0.00 62 1011.6
20260510171551 83 246 3.0 7.0 0.00 0.00 0.00 61 1011.5
20260510170136 82 214 5.0 8.0 0.00 0.00 0.00 66 1011.6
20260510164516 82 205 4.0 8.0 0.00 0.00 0.00 67 1011.7
20260510163006 81 205 5.0 8.0 0.00 0.00 0.00 66 1011.8
20260510161543 83 240 3.0 6.0 0.00 0.00 0.00 63 1011.8
20260510160005 83 224 2.0 4.0 0.00 0.00 0.00 54 1011.7
20260510154613 82 313 0.0 2.0 0.00 0.00 0.00 58 1011.5
20260510153049 80 313 1.0 3.0 0.00 0.00 0.00 58 1011.5
20260510151534 79 346 0.0 2.0 0.00 0.00 0.00 66 1011.5
20260510150008 78 5 1.0 2.0 0.00 0.00 0.00 71 1011.5
20260510144506 77 5 0.0 3.0 0.00 0.00 0.00 72 1011.5
20260510143056 76 5 1.0 3.0 0.00 0.00 0.00 71 1011.3
20260510141550 75 5 1.0 3.0 0.00 0.00 0.00 71 1011.4
20260510140150 74 11 0.0 4.0 0.00 0.00 0.00 73 1011.1
20260510134549 73 5 0.0 2.0 0.00 0.00 0.00 75 1011.0
20260510133044 72 5 0.0 2.0 0.00 0.00 0.00 76 1011.0
20260510131542 70 5 1.0 3.0 0.00 0.00 0.00 78 1011.0
20260510130123 70 5 1.0 3.0 0.00 0.00 0.00 78 1010.8
20260510124534 70 355 0.0 2.0 0.00 0.00 0.00 78 1010.7
20260510123013 70 355 0.0 3.0 0.00 0.00 0.00 76 1010.6
20260510121556 70 355 0.0 2.0 0.00 0.00 0.00 77 1010.5
20260510120137 70 355 0.0 3.0 0.00 0.00 0.00 78 1010.5
20260510114519 70 355 1.0 3.0 0.00 0.00 0.00 78 1010.5
20260510113005 70 355 1.0 2.0 0.00 0.00 0.00 79 1010.4
20260510111607 71 355 0.0 3.0 0.00 0.00 0.00 80 1010.3
20260510110144 71 355 0.0 2.0 0.00 0.00 0.00 80 1010.3
20260510104532 71 355 0.0 2.0 0.00 0.00 0.00 81 1010.1
20260510103007 71 355 1.0 4.0 0.00 0.00 0.00 80 1010.1
20260510101551 71 355 1.0 2.0 0.00 0.00 0.00 80 1010.2
20260510100131 71 355 0.0 2.0 0.00 0.00 0.00 80 1009.9
20260510094518 71 355 0.0 2.0 0.00 0.00 0.00 80 1009.8
20260510093002 72 355 0.0 3.0 0.00 0.00 0.00 79 1009.8
20260510091554 72 351 0.0 2.0 0.00 0.00 0.00 79 1009.8
20260510090142 72 46 0.0 0.0 0.00 0.00 0.00 79 1009.9
20260510084532 72 46 0.0 0.0 0.00 0.00 0.00 79 1010.0
20260510083003 72 46 0.0 0.0 0.00 0.00 0.00 80 1010.3
20260510081553 73 46 0.0 0.0 0.00 0.00 0.00 80 1010.4
20260510080126 73 46 0.0 2.0 0.00 0.00 0.00 80 1010.5
20260510074515 73 46 1.0 2.0 0.00 0.00 0.00 80 1010.7
20260510073056 73 65 0.0 3.0 0.00 0.00 0.00 80 1010.8
20260510071547 74 73 1.0 2.0 0.00 0.00 0.00 80 1010.8
20260510070135 75 112 0.0 0.0 0.00 0.00 0.00 82 1010.9
20260510064530 75 155 0.0 2.0 0.00 0.00 0.00 82 1011.0
20260510063013 76 264 0.0 0.0 0.00 0.00 0.00 80 1011.1
20260510061559 75 264 0.0 0.0 0.00 0.00 0.00 82 1011.3
20260510060144 75 264 0.0 0.0 0.00 0.00 0.00 83 1011.4
20260510054517 76 264 0.0 2.0 0.00 0.00 0.00 81 1011.5
20260510053002 76 265 0.0 2.0 0.00 0.00 0.00 79 1011.4
20260510051550 76 265 0.0 0.0 0.00 0.00 0.00 79 1011.3
20260510050134 76 265 0.0 2.0 0.00 0.00 0.00 79 1011.2
20260510044532 76 265 0.0 0.0 0.00 0.00 0.00 78 1011.2
20260510043010 77 265 0.0 1.0 0.00 0.00 0.00 78 1010.9
20260510041554 76 257 2.0 4.0 0.00 0.00 0.00 79 1010.8
20260510040008 77 304 1.0 5.0 0.00 0.00 0.00 79 1010.6
20260510034546 77 264 2.0 4.0 0.00 0.00 0.00 79 1010.5
20260510033012 77 290 2.0 7.0 0.00 0.00 0.00 78 1010.2
20260510030131 78 287 1.0 8.0 0.00 0.00 0.00 77 1009.8
20260510024518 78 303 2.0 7.0 0.00 0.00 0.00 76 1009.6
20260510023005 78 279 2.0 5.0 0.00 0.00 0.00 75 1009.4
20260510021554 78 292 2.0 7.0 0.00 0.00 0.00 75 1009.2
20260510020007 78 301 3.0 5.0 0.00 0.00 0.00 73 1009.1
20260510014502 79 300 2.0 8.0 0.00 0.00 0.00 71 1008.9
20260510013057 79 298 4.0 8.0 0.00 0.00 0.00 67 1008.9
20260510011552 80 286 4.0 8.0 0.00 0.00 0.00 64 1008.8
20260510010139 80 284 2.0 9.0 0.00 0.00 0.00 62 1008.7
20260510004536 80 284 4.0 10.0 0.00 0.00 0.00 59 1008.5
20260510003024 80 269 5.0 11.0 0.00 0.00 0.00 62 1008.3
20260510001604 81 274 6.0 12.0 0.00 0.00 0.00 66 1008.2
20260510001503 80 267 5.0 12.0 0.00 0.00 0.00 66 1008.2
20260510000015 81 290 5.0 10.0 0.00 0.00 0.00 66 1008.2
20260509234512 81 218 5.0 11.0 0.00 0.00 0.00 59 1008.1
20260509233102 82 278 7.0 10.0 0.00 0.00 0.00 67 1008.0